User: anonymous   Login
Location: Albany
(35.0000°S, 118.0000°E)
Time: 11:12:13
(UTC-04:00)
Language:

CZ-4B R/B - Orbit

View from above orbital plane
View from above orbital plane
View from above satellite
View from above satellite

Ground track
Ground track

The orbit data is extracted from the following two-line orbital elements,

1 33410U 08053C   17086.89141004 +.00000207 +00000-0 +19923-4 0  9993
2 33410 097.7218 058.2663 0121731 103.4817 258.0004 14.98180772458391
Epoch (UTC): 27 March 2017 21:23:37
Eccentricity: 0.0121731
inclination: 97.7218°
perigee height: 488 km
apogee height: 657 km
right ascension of ascending node: 58.2663°
argument of perigee: 103.4817°
revolutions per day: 14.98180772
mean anomaly at epoch: 258.0004°
orbit number at epoch: 45839

The dashed part of the orbit path shows where the satellite is in the earth's shadow,  

DLR